Starlink 32789

operational
NORAD ID: 62529 Int'l Des: 2025-004 Owner: SPXS Country: US Constellation: starlink
LEOCIRCULAR

关于 Starlink 32789

正在加载描述...

实时位置

正在加载3D地球...

即将过境

高度历史

Altitude vs Time

uPlot chart will show altitude changes over time

两行轨道根数

1 62529U 25004U 26035.05693372 .00035298 00000-0 12864-2 0 9996
2 62529 42.9997 49.9124 0001024 242.7415 117.3333 15.27571534 61319
Epoch: Feb 4, 2026 • Age: 12 hours

当前状态

高度 486.6 km
速度 7.62 km/s
星下点 -17.52°S, 45.46°E
发射日期 Jan 8, 2025
运行时间 1 years
类型 internet

技术详情

分类 Payload
质量 730.00 kg
干质量 700.00 kg
总质量 730.00 kg
长度 0.30 m
直径 4.10 m
跨度 29.00 m
形状 Box + pan
制造商 SPXS
平台类型 Starlink V2M
阶段状态 In Orbit
所有者/国家 SPXS/US

大型星座

Loading constellations...